Year,Month,Day,Hour,Minute,Value (Times are PST for temperature in C)
2012,06,06,00,00,9.80
2012,06,06,00,01,9.80
2012,06,06,00,02,9.80
2012,06,06,00,03,9.80
2012,06,06,00,04,9.80
2012,06,06,00,05,9.80
2012,06,06,00,06,9.80
2012,06,06,00,07,9.80
2012,06,06,00,08,9.80
2012,06,06,00,09,9.80
2012,06,06,00,10,9.80
2012,06,06,00,11,9.70
2012,06,06,00,12,9.70
2012,06,06,00,13,9.70
2012,06,06,00,14,9.70
2012,06,06,00,15,9.70
2012,06,06,00,16,9.70
2012,06,06,00,17,9.70
2012,06,06,00,18,9.70
2012,06,06,00,19,9.70
2012,06,06,00,20,9.70
2012,06,06,00,21,9.70
2012,06,06,00,22,9.70
2012,06,06,00,23,9.70
2012,06,06,00,24,9.70
2012,06,06,00,25,9.70
2012,06,06,00,26,9.70
2012,06,06,00,27,9.70
2012,06,06,00,28,9.70
2012,06,06,00,29,9.70
2012,06,06,00,30,9.70
2012,06,06,00,31,9.70
2012,06,06,00,32,9.70
2012,06,06,00,33,9.70
2012,06,06,00,34,9.70
2012,06,06,00,35,9.70
2012,06,06,00,36,9.70
2012,06,06,00,37,9.70
2012,06,06,00,38,9.70
2012,06,06,00,39,9.60
2012,06,06,00,40,9.60
2012,06,06,00,41,9.60
2012,06,06,00,42,9.60
2012,06,06,00,43,9.60
2012,06,06,00,44,9.50
2012,06,06,00,45,9.50
2012,06,06,00,46,9.50
2012,06,06,00,47,9.50
2012,06,06,00,48,9.50
2012,06,06,00,49,9.50
2012,06,06,00,50,9.50
2012,06,06,00,51,9.50
2012,06,06,00,52,9.50
2012,06,06,00,53,9.50
2012,06,06,00,54,9.50
2012,06,06,00,55,9.50
2012,06,06,00,56,9.50
2012,06,06,00,57,9.50
2012,06,06,00,58,9.50
2012,06,06,00,59,9.50
2012,06,06,01,00,9.50
2012,06,06,01,01,9.50
2012,06,06,01,02,9.50
2012,06,06,01,03,9.50
2012,06,06,01,04,9.50
2012,06,06,01,05,9.50
2012,06,06,01,06,9.50
2012,06,06,01,07,9.40
2012,06,06,01,08,9.40
2012,06,06,01,09,9.40
2012,06,06,01,10,9.40
2012,06,06,01,11,9.40
2012,06,06,01,12,9.40
2012,06,06,01,13,9.40
2012,06,06,01,14,9.40
2012,06,06,01,15,9.40
2012,06,06,01,16,9.30
2012,06,06,01,17,9.30
2012,06,06,01,18,9.30
2012,06,06,01,19,9.30
2012,06,06,01,20,9.30
2012,06,06,01,21,9.30
2012,06,06,01,22,9.30
2012,06,06,01,23,9.30
2012,06,06,01,24,9.30
2012,06,06,01,25,9.40
2012,06,06,01,26,9.30
2012,06,06,01,27,9.40
2012,06,06,01,28,9.40
2012,06,06,01,29,9.30
2012,06,06,01,30,9.30
2012,06,06,01,31,9.30
2012,06,06,01,32,9.30
2012,06,06,01,33,9.30
2012,06,06,01,34,9.30
2012,06,06,01,35,9.30
2012,06,06,01,36,9.30
2012,06,06,01,37,9.30
2012,06,06,01,38,9.30
2012,06,06,01,39,9.30
2012,06,06,01,40,9.30
2012,06,06,01,41,9.30
2012,06,06,01,42,9.30
2012,06,06,01,43,9.30
2012,06,06,01,44,9.30
2012,06,06,01,45,9.30
2012,06,06,01,46,9.30
2012,06,06,01,47,9.30
2012,06,06,01,48,9.30
2012,06,06,01,49,9.30
2012,06,06,01,50,9.30
2012,06,06,01,51,9.30
2012,06,06,01,52,9.20
2012,06,06,01,53,9.20
2012,06,06,01,54,9.20
2012,06,06,01,55,9.20
2012,06,06,01,56,9.20
2012,06,06,01,57,9.20
2012,06,06,01,58,9.20
2012,06,06,01,59,9.20
2012,06,06,02,00,9.20
2012,06,06,02,01,9.20
2012,06,06,02,02,9.20
2012,06,06,02,03,9.20
2012,06,06,02,04,9.20
2012,06,06,02,05,9.20
2012,06,06,02,06,9.20
2012,06,06,02,07,9.20
2012,06,06,02,08,9.20
2012,06,06,02,09,9.20
2012,06,06,02,10,9.20
2012,06,06,02,11,9.20
2012,06,06,02,12,9.20
2012,06,06,02,13,9.20
2012,06,06,02,14,9.20
2012,06,06,02,15,9.20
2012,06,06,02,16,9.20
2012,06,06,02,17,9.20
2012,06,06,02,18,9.20
2012,06,06,02,19,9.20
2012,06,06,02,20,9.20
2012,06,06,02,21,9.20
2012,06,06,02,22,9.20
2012,06,06,02,23,9.20
2012,06,06,02,24,9.20
2012,06,06,02,25,9.20
2012,06,06,02,26,9.20
2012,06,06,02,27,9.20
2012,06,06,02,28,9.20
2012,06,06,02,29,9.20
2012,06,06,02,30,9.20
2012,06,06,02,31,9.20
2012,06,06,02,32,9.10
2012,06,06,02,33,9.10
2012,06,06,02,34,9.10
2012,06,06,02,35,9.10
2012,06,06,02,36,9.10
2012,06,06,02,37,9.00
2012,06,06,02,38,9.00
2012,06,06,02,39,9.00
2012,06,06,02,40,8.90
2012,06,06,02,41,8.90
2012,06,06,02,42,8.90
2012,06,06,02,43,8.90
2012,06,06,02,44,8.80
2012,06,06,02,45,8.80
2012,06,06,02,46,8.70
2012,06,06,02,47,8.70
2012,06,06,02,48,8.70
2012,06,06,02,49,8.70
2012,06,06,02,50,8.70
2012,06,06,02,51,8.70
2012,06,06,02,52,8.60
2012,06,06,02,53,8.60
2012,06,06,02,54,8.50
2012,06,06,02,55,8.50
2012,06,06,02,56,8.50
2012,06,06,02,57,8.50
2012,06,06,02,58,8.40
2012,06,06,02,59,8.40
2012,06,06,03,00,8.30
2012,06,06,03,01,8.30
2012,06,06,03,02,8.30
2012,06,06,03,03,8.20
2012,06,06,03,04,8.20
2012,06,06,03,05,8.20
2012,06,06,03,06,8.20
2012,06,06,03,07,8.20
2012,06,06,03,08,8.10
2012,06,06,03,09,8.10
2012,06,06,03,10,8.10
2012,06,06,03,11,8.10
2012,06,06,03,12,8.00
2012,06,06,03,13,8.00
2012,06,06,03,14,8.00
2012,06,06,03,15,8.00
2012,06,06,03,16,7.90
2012,06,06,03,17,7.90
2012,06,06,03,18,7.90
2012,06,06,03,19,7.90
2012,06,06,03,20,7.90
2012,06,06,03,21,7.80
2012,06,06,03,22,7.80
2012,06,06,03,23,7.80
2012,06,06,03,24,7.80
2012,06,06,03,25,7.80
2012,06,06,03,26,7.80
2012,06,06,03,27,7.80
2012,06,06,03,28,7.80
2012,06,06,03,29,7.80
2012,06,06,03,30,7.80
2012,06,06,03,31,7.80
2012,06,06,03,32,7.80
2012,06,06,03,33,7.80
2012,06,06,03,34,7.80
2012,06,06,03,35,7.80
2012,06,06,03,36,7.80
2012,06,06,03,37,7.80
2012,06,06,03,38,7.80
2012,06,06,03,39,7.80
2012,06,06,03,40,7.80
2012,06,06,03,41,7.70
2012,06,06,03,42,7.70
2012,06,06,03,43,7.70
2012,06,06,03,44,7.70
2012,06,06,03,45,7.70
2012,06,06,03,46,7.70
2012,06,06,03,47,7.70
2012,06,06,03,48,7.70
2012,06,06,03,49,7.70
2012,06,06,03,50,7.70
2012,06,06,03,51,7.70
2012,06,06,03,52,7.60
2012,06,06,03,53,7.60
2012,06,06,03,54,7.60
2012,06,06,03,55,7.60
2012,06,06,03,56,7.60
2012,06,06,03,57,7.60
2012,06,06,03,58,7.50
2012,06,06,03,59,7.50
2012,06,06,04,00,7.50
2012,06,06,04,01,7.50
2012,06,06,04,02,7.50
2012,06,06,04,03,7.50
2012,06,06,04,04,7.40
2012,06,06,04,05,7.40
2012,06,06,04,06,7.40
2012,06,06,04,07,7.40
2012,06,06,04,08,7.40
2012,06,06,04,09,7.40
2012,06,06,04,10,7.40
2012,06,06,04,11,7.40
2012,06,06,04,12,7.30
2012,06,06,04,13,7.30
2012,06,06,04,14,7.30
2012,06,06,04,15,7.30
2012,06,06,04,16,7.30
2012,06,06,04,17,7.30
2012,06,06,04,18,7.30
2012,06,06,04,19,7.30
2012,06,06,04,20,7.30
2012,06,06,04,21,7.30
2012,06,06,04,22,7.30
2012,06,06,04,23,7.30
2012,06,06,04,24,7.30
2012,06,06,04,25,7.30
2012,06,06,04,26,7.30
2012,06,06,04,27,7.30
2012,06,06,04,28,7.30
2012,06,06,04,29,7.30
2012,06,06,04,30,7.30
2012,06,06,04,31,7.30
2012,06,06,04,32,7.20
2012,06,06,04,33,7.20
2012,06,06,04,34,7.20
2012,06,06,04,35,7.20
2012,06,06,04,36,7.20
2012,06,06,04,37,7.20
2012,06,06,04,38,7.20
2012,06,06,04,39,7.10
2012,06,06,04,40,7.10
2012,06,06,04,41,7.10
2012,06,06,04,42,7.10
2012,06,06,04,43,7.10
2012,06,06,04,44,7.00
2012,06,06,04,45,7.00
2012,06,06,04,46,7.00
2012,06,06,04,47,7.00
2012,06,06,04,48,7.00
2012,06,06,04,49,7.00
2012,06,06,04,50,7.00
2012,06,06,04,51,7.00
2012,06,06,04,52,6.90
2012,06,06,04,53,6.90
2012,06,06,04,54,6.90
2012,06,06,04,55,6.90
2012,06,06,04,56,6.90
2012,06,06,04,57,6.90
2012,06,06,04,58,6.90
2012,06,06,04,59,6.90
2012,06,06,05,00,6.80
2012,06,06,05,01,6.80
2012,06,06,05,02,6.80
2012,06,06,05,03,6.80
2012,06,06,05,04,6.80
2012,06,06,05,05,6.80
2012,06,06,05,06,6.80
2012,06,06,05,07,6.80
2012,06,06,05,08,6.80
2012,06,06,05,09,6.80
2012,06,06,05,10,6.80
2012,06,06,05,11,6.80
2012,06,06,05,12,6.80
2012,06,06,05,13,6.80
2012,06,06,05,14,6.80
2012,06,06,05,15,6.70
2012,06,06,05,16,6.70
2012,06,06,05,17,6.70
2012,06,06,05,18,6.70
2012,06,06,05,19,6.70
2012,06,06,05,20,6.70
2012,06,06,05,21,6.70
2012,06,06,05,22,6.60
2012,06,06,05,23,6.60
2012,06,06,05,24,6.60
2012,06,06,05,25,6.60
2012,06,06,05,26,6.60
2012,06,06,05,27,6.60
2012,06,06,05,28,6.60
2012,06,06,05,29,6.60
2012,06,06,05,30,6.60
2012,06,06,05,31,6.60
2012,06,06,05,32,6.60
2012,06,06,05,33,6.60
2012,06,06,05,34,6.60
2012,06,06,05,35,6.60
2012,06,06,05,36,6.60
2012,06,06,05,37,6.60
2012,06,06,05,38,6.60
2012,06,06,05,39,6.60
2012,06,06,05,40,6.60
2012,06,06,05,41,6.60
2012,06,06,05,42,6.70
2012,06,06,05,43,6.70
2012,06,06,05,44,6.70
2012,06,06,05,45,6.70
2012,06,06,05,46,6.70
2012,06,06,05,47,6.70
2012,06,06,05,48,6.70
2012,06,06,05,49,6.80
2012,06,06,05,50,6.80
2012,06,06,05,51,6.80
2012,06,06,05,52,6.80
2012,06,06,05,53,6.80
2012,06,06,05,54,6.80
2012,06,06,05,55,6.80
2012,06,06,05,56,6.80
2012,06,06,05,57,6.80
2012,06,06,05,58,6.80
2012,06,06,05,59,6.80
2012,06,06,06,00,6.80
2012,06,06,06,01,6.80
2012,06,06,06,02,6.80
2012,06,06,06,03,6.80
2012,06,06,06,04,6.80
2012,06,06,06,05,6.80
2012,06,06,06,06,6.80
2012,06,06,06,07,6.90
2012,06,06,06,08,6.90
2012,06,06,06,09,6.90
2012,06,06,06,10,6.90
2012,06,06,06,11,6.90
2012,06,06,06,12,6.90
2012,06,06,06,13,7.00
2012,06,06,06,14,7.00
2012,06,06,06,15,7.00
2012,06,06,06,16,7.00
2012,06,06,06,17,7.00
2012,06,06,06,18,7.00
2012,06,06,06,19,7.00
2012,06,06,06,20,7.00
2012,06,06,06,21,7.00
2012,06,06,06,22,7.00
2012,06,06,06,23,7.00
2012,06,06,06,24,7.10
2012,06,06,06,25,7.10
2012,06,06,06,26,7.10
2012,06,06,06,27,7.10
2012,06,06,06,28,7.10
2012,06,06,06,29,7.10
2012,06,06,06,30,7.10
2012,06,06,06,31,7.20
2012,06,06,06,32,7.20
2012,06,06,06,33,7.20
2012,06,06,06,34,7.20
2012,06,06,06,35,7.30
2012,06,06,06,36,7.30
2012,06,06,06,37,7.30
2012,06,06,06,38,7.30
2012,06,06,06,39,7.30
2012,06,06,06,40,7.30
2012,06,06,06,41,7.30
2012,06,06,06,42,7.40
2012,06,06,06,43,7.40
2012,06,06,06,44,7.40
2012,06,06,06,45,7.50
2012,06,06,06,46,7.50
2012,06,06,06,47,7.50
2012,06,06,06,48,7.60
2012,06,06,06,49,7.60
2012,06,06,06,50,7.70
2012,06,06,06,51,7.70
2012,06,06,06,52,7.80
2012,06,06,06,53,7.80
2012,06,06,06,54,7.80
2012,06,06,06,55,7.90
2012,06,06,06,56,7.90
2012,06,06,06,57,8.00
2012,06,06,06,58,8.00
2012,06,06,06,59,8.10
2012,06,06,07,00,8.10
2012,06,06,07,01,8.20
2012,06,06,07,02,8.20
2012,06,06,07,03,8.20
2012,06,06,07,04,8.20
2012,06,06,07,05,8.20
2012,06,06,07,06,8.20
2012,06,06,07,07,8.30
2012,06,06,07,08,8.30
2012,06,06,07,09,8.30
2012,06,06,07,10,8.30
2012,06,06,07,11,8.30
2012,06,06,07,12,8.30
2012,06,06,07,13,8.40
2012,06,06,07,14,8.40
2012,06,06,07,15,8.40
2012,06,06,07,16,8.50
2012,06,06,07,17,8.50
2012,06,06,07,18,8.50
2012,06,06,07,19,8.60
2012,06,06,07,20,8.60
2012,06,06,07,21,8.70
2012,06,06,07,22,8.70
2012,06,06,07,23,8.70
2012,06,06,07,24,8.70
2012,06,06,07,25,8.80
2012,06,06,07,26,8.90
2012,06,06,07,27,9.00
2012,06,06,07,28,9.00
2012,06,06,07,29,9.20
2012,06,06,07,30,9.20
2012,06,06,07,31,9.30
2012,06,06,07,32,9.40
2012,06,06,07,33,9.50
2012,06,06,07,34,9.60
2012,06,06,07,35,9.70
2012,06,06,07,36,9.70
2012,06,06,07,37,9.80
2012,06,06,07,38,9.90
2012,06,06,07,39,9.90
2012,06,06,07,40,10.00
2012,06,06,07,41,10.00
2012,06,06,07,42,10.10
2012,06,06,07,43,10.10
2012,06,06,07,44,10.20
2012,06,06,07,45,10.30
2012,06,06,07,46,10.40
2012,06,06,07,47,10.50
2012,06,06,07,48,10.60
2012,06,06,07,49,10.60
2012,06,06,07,50,10.60
2012,06,06,07,51,10.60
2012,06,06,07,52,10.70
2012,06,06,07,53,10.80
2012,06,06,07,54,10.80
2012,06,06,07,55,10.80
2012,06,06,07,56,10.90
2012,06,06,07,57,10.90
2012,06,06,07,58,10.90
2012,06,06,07,59,10.90
2012,06,06,08,00,11.00
2012,06,06,08,01,11.10
2012,06,06,08,02,11.10
2012,06,06,08,03,11.10
2012,06,06,08,04,11.10
2012,06,06,08,05,11.20
2012,06,06,08,06,11.20
2012,06,06,08,07,11.20
2012,06,06,08,08,11.20
2012,06,06,08,09,11.10
2012,06,06,08,10,11.10
2012,06,06,08,11,11.10
2012,06,06,08,12,11.10
2012,06,06,08,13,11.10
2012,06,06,08,14,11.10
2012,06,06,08,15,11.10
2012,06,06,08,16,11.20
2012,06,06,08,17,11.30
2012,06,06,08,18,11.30
2012,06,06,08,19,11.40
2012,06,06,08,20,11.60
2012,06,06,08,21,11.60
2012,06,06,08,22,11.80
2012,06,06,08,23,11.80
2012,06,06,08,24,11.90
2012,06,06,08,25,11.90
2012,06,06,08,26,12.00
2012,06,06,08,27,12.00
2012,06,06,08,28,12.00
2012,06,06,08,29,12.00
2012,06,06,08,30,12.10
2012,06,06,08,31,12.20
2012,06,06,08,32,12.20
2012,06,06,08,33,12.20
2012,06,06,08,34,12.20
2012,06,06,08,35,12.30
2012,06,06,08,36,12.30
2012,06,06,08,37,12.30
2012,06,06,08,38,12.30
2012,06,06,08,39,12.30
2012,06,06,08,40,12.30
2012,06,06,08,41,12.30
2012,06,06,08,42,12.30
2012,06,06,08,43,12.40
2012,06,06,08,44,12.40
2012,06,06,08,45,12.50
2012,06,06,08,46,12.50
2012,06,06,08,47,12.60
2012,06,06,08,48,12.60
2012,06,06,08,49,12.70
2012,06,06,08,50,12.80
2012,06,06,08,51,12.90
2012,06,06,08,52,13.00
2012,06,06,08,53,13.00
2012,06,06,08,54,12.90
2012,06,06,08,55,12.90
2012,06,06,08,56,12.90
2012,06,06,08,57,13.00
2012,06,06,08,58,13.10
2012,06,06,08,59,13.10
2012,06,06,09,00,12.90
2012,06,06,09,01,12.80
2012,06,06,09,02,12.60
2012,06,06,09,03,12.50
2012,06,06,09,04,12.30
2012,06,06,09,05,12.30
2012,06,06,09,06,12.30
2012,06,06,09,07,12.30
2012,06,06,09,08,12.20
2012,06,06,09,09,12.20
2012,06,06,09,10,12.20
2012,06,06,09,11,12.30
2012,06,06,09,12,12.40
2012,06,06,09,13,12.40
2012,06,06,09,14,12.30
2012,06,06,09,15,12.20
2012,06,06,09,16,12.20
2012,06,06,09,17,12.10
2012,06,06,09,18,12.10
2012,06,06,09,19,12.20
2012,06,06,09,20,12.10
2012,06,06,09,21,12.10
2012,06,06,09,22,12.10
2012,06,06,09,23,12.10
2012,06,06,09,24,12.10
2012,06,06,09,25,12.10
2012,06,06,09,26,12.20
2012,06,06,09,27,12.20
2012,06,06,09,28,12.20
2012,06,06,09,29,12.20
2012,06,06,09,30,12.30
2012,06,06,09,31,12.30
2012,06,06,09,32,12.10
2012,06,06,09,33,12.00
2012,06,06,09,34,11.90
2012,06,06,09,35,11.90
2012,06,06,09,36,11.90
2012,06,06,09,37,11.80
2012,06,06,09,38,11.90
2012,06,06,09,39,12.00
2012,06,06,09,40,12.10
2012,06,06,09,41,12.20
2012,06,06,09,42,12.30
2012,06,06,09,43,12.50
2012,06,06,09,44,12.50
2012,06,06,09,45,12.40
2012,06,06,09,46,12.30
2012,06,06,09,47,12.30
2012,06,06,09,48,12.30
2012,06,06,09,49,12.30
2012,06,06,09,50,12.30
2012,06,06,09,51,12.40
2012,06,06,09,52,12.50
2012,06,06,09,53,12.60
2012,06,06,09,54,12.70
2012,06,06,09,55,12.80
2012,06,06,09,56,12.80
2012,06,06,09,57,12.80
2012,06,06,09,58,12.80
2012,06,06,09,59,12.80
2012,06,06,10,00,12.80
2012,06,06,10,01,12.80
2012,06,06,10,02,12.80
2012,06,06,10,03,12.70
2012,06,06,10,04,12.70
2012,06,06,10,05,12.70
2012,06,06,10,06,12.80
2012,06,06,10,07,12.80
2012,06,06,10,08,12.80
2012,06,06,10,09,12.90
2012,06,06,10,10,13.00
2012,06,06,10,11,13.00
2012,06,06,10,12,13.10
2012,06,06,10,13,13.20
2012,06,06,10,14,13.20
2012,06,06,10,15,13.20
2012,06,06,10,16,13.10
2012,06,06,10,17,13.10
2012,06,06,10,18,13.00
2012,06,06,10,19,12.90
2012,06,06,10,20,12.90
2012,06,06,10,21,12.90
2012,06,06,10,22,12.90
2012,06,06,10,23,12.90
2012,06,06,10,24,12.90
2012,06,06,10,25,13.10
2012,06,06,10,26,13.20
2012,06,06,10,27,13.30
2012,06,06,10,28,13.40
2012,06,06,10,29,13.50
2012,06,06,10,30,13.60
2012,06,06,10,31,13.60
2012,06,06,10,32,13.70
2012,06,06,10,33,13.80
2012,06,06,10,34,14.00
2012,06,06,10,35,14.00
2012,06,06,10,36,14.00
2012,06,06,10,37,14.00
2012,06,06,10,38,14.00
2012,06,06,10,39,14.00
2012,06,06,10,40,13.90
2012,06,06,10,41,13.80
2012,06,06,10,42,13.80
2012,06,06,10,43,13.70
2012,06,06,10,44,13.60
2012,06,06,10,45,13.60
2012,06,06,10,46,13.70
2012,06,06,10,47,13.70
2012,06,06,10,48,13.70
2012,06,06,10,49,13.60
2012,06,06,10,50,13.60
2012,06,06,10,51,13.60
2012,06,06,10,52,13.50
2012,06,06,10,53,13.50
2012,06,06,10,54,13.40
2012,06,06,10,55,13.20
2012,06,06,10,56,13.00
2012,06,06,10,57,12.80
2012,06,06,10,58,12.80
2012,06,06,10,59,12.80
2012,06,06,11,00,12.90
2012,06,06,11,01,12.90
2012,06,06,11,02,12.90
2012,06,06,11,03,12.90
2012,06,06,11,04,12.90
2012,06,06,11,05,12.80
2012,06,06,11,06,12.80
2012,06,06,11,07,12.80
2012,06,06,11,08,12.80
2012,06,06,11,09,12.80
2012,06,06,11,10,12.60
2012,06,06,11,11,12.40
2012,06,06,11,12,12.30
2012,06,06,11,13,12.30
2012,06,06,11,14,12.30
2012,06,06,11,15,12.30
2012,06,06,11,16,12.20
2012,06,06,11,17,12.00
2012,06,06,11,18,11.70
2012,06,06,11,19,11.60
2012,06,06,11,20,11.60
2012,06,06,11,21,11.60
2012,06,06,11,22,11.60
2012,06,06,11,23,11.70
2012,06,06,11,24,11.90
2012,06,06,11,25,12.00
2012,06,06,11,26,12.10
2012,06,06,11,27,12.20
2012,06,06,11,28,12.10
2012,06,06,11,29,12.10
2012,06,06,11,30,12.30
2012,06,06,11,31,12.40
2012,06,06,11,32,12.40
2012,06,06,11,33,12.30
2012,06,06,11,34,12.20
2012,06,06,11,35,12.10
2012,06,06,11,36,12.10
2012,06,06,11,37,12.00
2012,06,06,11,38,12.00
2012,06,06,11,39,11.90
2012,06,06,11,40,11.90
2012,06,06,11,41,12.00
2012,06,06,11,42,12.10
2012,06,06,11,43,12.10
2012,06,06,11,44,12.10
2012,06,06,11,45,12.00
2012,06,06,11,46,11.90
2012,06,06,11,47,11.80
2012,06,06,11,48,11.80
2012,06,06,11,49,11.90
2012,06,06,11,50,11.90
2012,06,06,11,51,11.90
2012,06,06,11,52,11.80
2012,06,06,11,53,11.70
2012,06,06,11,54,11.70
2012,06,06,11,55,11.80
2012,06,06,11,56,11.80
2012,06,06,11,57,11.80
2012,06,06,11,58,11.80
2012,06,06,11,59,11.90
2012,06,06,12,00,12.00
2012,06,06,12,01,12.20
2012,06,06,12,02,12.30
2012,06,06,12,03,12.30
2012,06,06,12,04,12.30
2012,06,06,12,05,12.30
2012,06,06,12,06,12.30
2012,06,06,12,07,12.30
2012,06,06,12,08,12.30
2012,06,06,12,09,12.30
2012,06,06,12,10,12.30
2012,06,06,12,11,12.30
2012,06,06,12,12,12.40
2012,06,06,12,13,12.50
2012,06,06,12,14,12.70
2012,06,06,12,15,12.80
2012,06,06,12,16,12.80
2012,06,06,12,17,12.80
2012,06,06,12,18,12.80
2012,06,06,12,19,12.90
2012,06,06,12,20,13.00
2012,06,06,12,21,13.00
2012,06,06,12,22,13.00
2012,06,06,12,23,12.90
2012,06,06,12,24,12.80
2012,06,06,12,25,12.70
2012,06,06,12,26,12.80
2012,06,06,12,27,12.80
2012,06,06,12,28,12.80
2012,06,06,12,29,12.80
2012,06,06,12,30,12.90
2012,06,06,12,31,12.80
2012,06,06,12,32,12.80
2012,06,06,12,33,12.70
2012,06,06,12,34,12.70
2012,06,06,12,35,12.60
2012,06,06,12,36,12.50
2012,06,06,12,37,12.50
2012,06,06,12,38,12.50
2012,06,06,12,39,12.40
2012,06,06,12,40,12.30
2012,06,06,12,41,12.40
2012,06,06,12,42,12.50
2012,06,06,12,43,12.60
2012,06,06,12,44,12.70
2012,06,06,12,45,12.60
2012,06,06,12,46,12.50
2012,06,06,12,47,12.60
2012,06,06,12,48,12.60
2012,06,06,12,49,12.70
2012,06,06,12,50,12.80
2012,06,06,12,51,12.90
2012,06,06,12,52,12.90
2012,06,06,12,53,12.80
2012,06,06,12,54,12.70
2012,06,06,12,55,12.60
2012,06,06,12,56,12.70
2012,06,06,12,57,12.70
2012,06,06,12,58,12.70
2012,06,06,12,59,12.80
2012,06,06,13,00,12.80
2012,06,06,13,01,12.80
2012,06,06,13,02,12.80
2012,06,06,13,03,12.70
2012,06,06,13,04,12.70
2012,06,06,13,05,12.80
2012,06,06,13,06,13.00
2012,06,06,13,07,13.20
2012,06,06,13,08,13.30
2012,06,06,13,09,13.30
2012,06,06,13,10,13.30
2012,06,06,13,11,13.20
2012,06,06,13,12,13.20
2012,06,06,13,13,13.10
2012,06,06,13,14,13.20
2012,06,06,13,15,13.20
2012,06,06,13,16,13.20
2012,06,06,13,17,13.10
2012,06,06,13,18,13.10
2012,06,06,13,19,13.10
2012,06,06,13,20,13.20
2012,06,06,13,21,13.30
2012,06,06,13,22,13.30
2012,06,06,13,23,13.30
2012,06,06,13,24,13.20
2012,06,06,13,25,13.20
2012,06,06,13,26,13.30
2012,06,06,13,27,13.40
2012,06,06,13,28,13.60
2012,06,06,13,29,13.60
2012,06,06,13,30,13.50
2012,06,06,13,31,13.50
2012,06,06,13,32,13.30
2012,06,06,13,33,13.20
2012,06,06,13,34,13.10
2012,06,06,13,35,13.00
2012,06,06,13,36,13.10
2012,06,06,13,37,13.10
2012,06,06,13,38,13.20
2012,06,06,13,39,13.30
2012,06,06,13,40,13.30
2012,06,06,13,41,13.20
2012,06,06,13,42,13.10
2012,06,06,13,43,13.10
2012,06,06,13,44,13.10
2012,06,06,13,45,13.20
2012,06,06,13,46,13.30
2012,06,06,13,47,13.30
2012,06,06,13,48,13.20
2012,06,06,13,49,13.30
2012,06,06,13,50,13.30
2012,06,06,13,51,13.10
2012,06,06,13,52,13.00
2012,06,06,13,53,12.90
2012,06,06,13,54,13.10
2012,06,06,13,55,13.30
2012,06,06,13,56,13.30
2012,06,06,13,57,13.30
2012,06,06,13,58,13.30
2012,06,06,13,59,13.30
2012,06,06,14,00,13.20
2012,06,06,14,01,13.20
2012,06,06,14,02,13.20
2012,06,06,14,03,13.20
2012,06,06,14,04,13.30
2012,06,06,14,05,13.40
2012,06,06,14,06,13.40
2012,06,06,14,07,13.40
2012,06,06,14,08,13.40
2012,06,06,14,09,13.30
2012,06,06,14,10,13.30
2012,06,06,14,11,13.30
2012,06,06,14,12,13.30
2012,06,06,14,13,13.30
2012,06,06,14,14,13.30
2012,06,06,14,15,13.20
2012,06,06,14,16,13.10
2012,06,06,14,17,13.00
2012,06,06,14,18,12.90
2012,06,06,14,19,12.90
2012,06,06,14,20,12.90
2012,06,06,14,21,12.90
2012,06,06,14,22,13.00
2012,06,06,14,23,13.00
2012,06,06,14,24,13.00
2012,06,06,14,25,13.00
2012,06,06,14,26,13.00
2012,06,06,14,27,13.00
2012,06,06,14,28,12.90
2012,06,06,14,29,12.80
2012,06,06,14,30,12.80
2012,06,06,14,31,12.80
2012,06,06,14,32,12.70
2012,06,06,14,33,12.60
2012,06,06,14,34,12.60
2012,06,06,14,35,12.60
2012,06,06,14,36,12.50
2012,06,06,14,37,12.50
2012,06,06,14,38,12.40
2012,06,06,14,39,12.40
2012,06,06,14,40,12.30
2012,06,06,14,41,12.30
2012,06,06,14,42,12.40
2012,06,06,14,43,12.30
2012,06,06,14,44,12.30
2012,06,06,14,45,12.30
2012,06,06,14,46,12.30
2012,06,06,14,47,12.30
2012,06,06,14,48,12.30
2012,06,06,14,49,12.30
2012,06,06,14,50,12.40
2012,06,06,14,51,12.40
2012,06,06,14,52,12.40
2012,06,06,14,53,12.40
2012,06,06,14,54,12.40
2012,06,06,14,55,12.30
2012,06,06,14,56,12.30
2012,06,06,14,57,12.30
2012,06,06,14,58,12.30
2012,06,06,14,59,12.30
2012,06,06,15,00,12.30
2012,06,06,15,01,12.20
2012,06,06,15,02,12.20
2012,06,06,15,03,12.30
2012,06,06,15,04,12.30
2012,06,06,15,05,12.20
2012,06,06,15,06,12.20
2012,06,06,15,07,12.30
2012,06,06,15,08,12.30
2012,06,06,15,09,12.30
2012,06,06,15,10,12.30
2012,06,06,15,11,12.40
2012,06,06,15,12,12.40
2012,06,06,15,13,12.40
2012,06,06,15,14,12.40
2012,06,06,15,15,12.40
2012,06,06,15,16,12.50
2012,06,06,15,17,12.50
2012,06,06,15,18,12.60
2012,06,06,15,19,12.60
2012,06,06,15,20,12.70
2012,06,06,15,21,12.60
2012,06,06,15,22,12.60
2012,06,06,15,23,12.60
2012,06,06,15,24,12.60
2012,06,06,15,25,12.60
2012,06,06,15,26,12.70
2012,06,06,15,27,12.70
2012,06,06,15,28,12.70
2012,06,06,15,29,12.70
2012,06,06,15,30,12.70
2012,06,06,15,31,12.70
2012,06,06,15,32,12.70
2012,06,06,15,33,12.70
2012,06,06,15,34,12.70
2012,06,06,15,35,12.70
2012,06,06,15,36,12.70
2012,06,06,15,37,12.70
2012,06,06,15,38,12.60
2012,06,06,15,39,12.60
2012,06,06,15,40,12.60
2012,06,06,15,41,12.70
2012,06,06,15,42,12.70
2012,06,06,15,43,12.80
2012,06,06,15,44,12.80
2012,06,06,15,45,12.90
2012,06,06,15,46,12.90
2012,06,06,15,47,12.80
2012,06,06,15,48,12.80
2012,06,06,15,49,12.80
2012,06,06,15,50,12.80
2012,06,06,15,51,12.80
2012,06,06,15,52,12.80
2012,06,06,15,53,12.80
2012,06,06,15,54,12.70
2012,06,06,15,55,12.70
2012,06,06,15,56,12.70
2012,06,06,15,57,12.80
2012,06,06,15,58,12.80
2012,06,06,15,59,12.70
2012,06,06,16,00,12.70
2012,06,06,16,01,12.60
2012,06,06,16,02,12.60
2012,06,06,16,03,12.60
2012,06,06,16,04,12.60
2012,06,06,16,05,12.60
2012,06,06,16,06,12.60
2012,06,06,16,07,12.60
2012,06,06,16,08,12.60
2012,06,06,16,09,12.60
2012,06,06,16,10,12.60
2012,06,06,16,11,12.60
2012,06,06,16,12,12.60
2012,06,06,16,13,12.70
2012,06,06,16,14,12.70
2012,06,06,16,15,12.60
2012,06,06,16,16,12.60
2012,06,06,16,17,12.70
2012,06,06,16,18,12.70
2012,06,06,16,19,12.70
2012,06,06,16,20,12.70
2012,06,06,16,21,12.70
2012,06,06,16,22,12.70
2012,06,06,16,23,12.80
2012,06,06,16,24,12.80
2012,06,06,16,25,12.80
2012,06,06,16,26,12.80
2012,06,06,16,27,12.80
2012,06,06,16,28,12.90
2012,06,06,16,29,12.90
2012,06,06,16,30,12.80
2012,06,06,16,31,12.80
2012,06,06,16,32,12.80
2012,06,06,16,33,12.80
2012,06,06,16,34,12.80
2012,06,06,16,35,12.80
2012,06,06,16,36,12.80
2012,06,06,16,37,12.80
2012,06,06,16,38,12.70
2012,06,06,16,39,12.70
2012,06,06,16,40,12.70
2012,06,06,16,41,12.70
2012,06,06,16,42,12.60
2012,06,06,16,43,12.60
2012,06,06,16,44,12.70
2012,06,06,16,45,12.60
2012,06,06,16,46,12.70
2012,06,06,16,47,12.60
2012,06,06,16,48,12.60
2012,06,06,16,49,12.60
2012,06,06,16,50,12.60
2012,06,06,16,51,12.60
2012,06,06,16,52,12.70
2012,06,06,16,53,12.70
2012,06,06,16,54,12.70
2012,06,06,16,55,12.70
2012,06,06,16,56,12.60
2012,06,06,16,57,12.60
2012,06,06,16,58,12.50
2012,06,06,16,59,12.50
2012,06,06,17,00,12.50
2012,06,06,17,01,12.50
2012,06,06,17,02,12.50
2012,06,06,17,03,12.50
2012,06,06,17,04,12.50
2012,06,06,17,05,12.50
2012,06,06,17,06,12.50
2012,06,06,17,07,12.50
2012,06,06,17,08,12.50
2012,06,06,17,09,12.50
2012,06,06,17,10,12.50
2012,06,06,17,11,12.50
2012,06,06,17,12,12.50
2012,06,06,17,13,12.50
2012,06,06,17,14,12.60
2012,06,06,17,15,12.60
2012,06,06,17,16,12.60
2012,06,06,17,17,12.60
2012,06,06,17,18,12.60
2012,06,06,17,19,12.60
2012,06,06,17,20,12.60
2012,06,06,17,21,12.70
2012,06,06,17,22,12.70
2012,06,06,17,23,12.70
2012,06,06,17,24,12.70
2012,06,06,17,25,12.80
2012,06,06,17,26,12.80
2012,06,06,17,27,12.80
2012,06,06,17,28,12.80
2012,06,06,17,29,12.80
2012,06,06,17,30,12.80
2012,06,06,17,31,12.80
2012,06,06,17,32,12.80
2012,06,06,17,33,12.80
2012,06,06,17,34,12.80
2012,06,06,17,35,12.80
2012,06,06,17,36,12.80
2012,06,06,17,37,12.80
2012,06,06,17,38,12.80
2012,06,06,17,39,12.80